Powrót do katalogu

OPS 4682 DEB

AktywnyPO
NORAD 53351·DEBRIS·🇺🇸 United States

Wystrzelony Apr 3, 1965 z Vandenberg Space Force Base

Loading…

Następne Przeloty (najbliższe 24 godziny)

TLE

ŚwieżeSource: Space-Track

Epoka: Sep 11, 2026, 14:32 UTC

1 53351U 65027HB  26254.60558757 -.00000130  00000-0 -47899-3 0  9995
2 53351  90.2481  10.7906 0022314 210.9333 164.7556 12.96537680704113

Śledź OPS 4682 DEB w czasie rzeczywistym z AllMySat

Download on the App Store